Content
SEND FEEDBACK

Daily
Averages
Monthly
Summary
United States of America

WILMINGTON, NORTH CAROLINA


Home > North America > United States > North Carolina
Elevation: 72 feet     Latitude: 34 16N     Longitude: 077 54W

WEATHER
 
SELECT A DAY
Number of Records: 211,656;   Date Range: 1/1/95 - 9/29/14
 
SHARE

PRINT THIS DATA

[ ← Previous Day ]
WEATHER ALMANAC - JANUARY 9, 2013
[ Next Day → ]
[ °C ]   °F
Weather ElementAverageHighLow
Temperature58.7 °F70 °F (1:53 pm)43 °F (1:53 am)
Dewpoint51.2 °F55 °F (2:53 pm)41 °F (1:53 am)
Humidity77.6 %93 % (1:53 am)56 % (1:04 pm)
Barometer30.38 in30.42 in (9:53 am)30.35 in (3:53 am)
Wind Speed2.5 mph6.9 mph (11:51 am)
Weather ElementAverage
Visibility9.8 mi
Wind DirectionNE (41.2 °)

Weather ElementTotal
Precipitation---
Heating Degree Days8.5 (Base 65)
Growing Degree Days6.5 (Base 50)
Averaged from 25 records on January 9, 2013
WEATHER CONDITIONS BREAKOUT
WIND DIRECTION BREAKOUT
WEATHER BY HOUR - JANUARY 9, 2013
[ °C ]   °F
Local TimeTemperatureDewpointHumidityBarometerVisibilityWind DirectionWind SpeedGust SpeedPrecipitationEventsConditions
1:53 AM43.0 °F41.0 °F93 %30.36 in8.0 miCalmClear
2:53 AM45.0 °F43.0 °F93 %30.36 in8.0 miCalmScattered Clouds
3:53 AM46.9 °F44.1 °F90 %30.35 in10.0 miCalmOvercast
4:53 AM48.0 °F45.0 °F89 %30.36 in10.0 miCalmOvercast
5:53 AM48.9 °F46.9 °F93 %30.36 in10.0 miNNE (20°)3.5 mphOvercast
6:53 AM50.0 °F48.0 °F93 %30.39 in10.0 miCalmOvercast
7:53 AM52.0 °F48.9 °F89 %30.41 in10.0 miCalmOvercast
8:53 AM55.0 °F51.1 °F86 %30.41 in10.0 miCalmOvercast
9:53 AM60.1 °F52.0 °F75 %30.42 in10.0 miENE (60°)3.5 mphOvercast
10:53 AM63.0 °F53.1 °F70 %30.40 in10.0 miNNE (30°)3.5 mphOvercast
11:51 AM68.0 °F53.6 °F60 %30.37 in10.0 miEast (90°)6.9 mphMostly Cloudy
11:53 AM68.0 °F53.1 °F59 %30.38 in10.0 miEast (80°)6.9 mphMostly Cloudy
12:53 PM69.1 °F54.0 °F58 %30.36 in10.0 miEast (90°)6.9 mphMostly Cloudy
1:04 PM69.8 °F53.6 °F56 %30.36 in10.0 miENE (60°)5.8 mphOvercast
1:53 PM70.0 °F54.0 °F57 %30.35 in10.0 miEast (100°)6.9 mphMostly Cloudy
2:53 PM70.0 °F55.0 °F59 %30.36 in10.0 miESE (120°)6.9 mphScattered Clouds
3:53 PM66.9 °F54.0 °F63 %30.37 in10.0 miESE (120°)4.6 mphClear
4:53 PM64.9 °F55.0 °F70 %30.38 in10.0 miESE (120°)3.5 mphClear
5:53 PM62.1 °F54.0 °F75 %30.38 in10.0 miSE (140°)3.5 mphClear
6:53 PM61.0 °F53.1 °F75 %30.39 in10.0 miCalmClear
7:53 PM59.0 °F53.1 °F81 %30.38 in10.0 miCalmOvercast
8:53 PM57.2 °F53.6 °F88 %30.39 in10.0 miCalmClear
9:53 PM57.9 °F54.0 °F87 %30.38 in10.0 miCalmClear
10:53 PM55.9 °F53.1 °F90 %30.39 in10.0 miCalmClear
11:53 PM55.9 °F53.1 °F90 %30.41 in10.0 miCalmClear
Hourly data recorded from KILM, located miles away from Wilmington, North Carolina







STORIES FROM OUR PARTNERS